BEIDOU-2 IGSO-2 (C07)

Last updated on Mon Oct 20 2025 00:03:24 GMT+0000 (Coordinated Universal Time)

1 37256U 10068A 25291.86489378 -.00000202 00000+0 00000+0 0 9993 2 37256 47.9838 274.8213 0047516 217.4648 311.0960 1.00249468 54379
UTC large
Height (km)
Speed (km/s)
/
Latitude / Longitude
Inclination (degrees)
Orbital Period (minutes)
Azimuth
Elevation
Range (km)
Doppler Factor

Next 0 passes for location: London (51.5072 / 0.1276)

Sorry there are no passes over London.